星链-5094 (STARLINK-5094 )

导读 | 星芒AI

STARLINK-5094 是 SpaceX Starlink 项目中的一颗低轨通信卫星,属于第 14 批(v1.5 版本)部署的卫星之一。该卫星于 2022 年 11 月 18 日由猎鹰 9 号火箭从卡纳维拉尔角发射升空。它运行在约 540 公里的轨道高度,旨在为全球提供高速互联网服务。STARLINK-5094 采用先进的相控阵天线和激光通信技术,支持低延迟、高带宽的网络连接,主要服务于偏远和网络基础设施薄弱的地区。

基本信息
目录编号:
53977
目录名称:
STARLINK-5094
国际标识:
2022-125P
轨道中心:
EARTH
卫星名称:
星链-5094
卫星全名:
星链-5094 (STARLINK-5094 )
卫星状态:
在轨 (已飞行1126 天)
发射日期:
2022-10-05 UTC
国别 :
美国 (US)
星等 :
--
轨道信息
数据来源 国际轨道数据
星历时间: 2025-11-04T09:14:32+0800
21小时前
查看轨道信息
半长轴: 6917.897km
偏心率: 0.0001325
轨道倾角: 53.218°
近地点辐角 87.288°
升交点赤经 63.241°
平近点角 272.827°
近地点: 538.845km
远地点: 540.679km
周期: 95.438分钟
每日圈数: 15.088348
详细信息
固有亮度:
5
最大亮度:
2.5
卫星平台:
Starlink v1.5
覆盖范围:
全球
运营商:
太空探索技术公司
运营商所在国:
美国
制造商(研发单位):
太空探索技术公司
制造商所在国:
美国
使用方式:
暂无
卫星简介
星链(Starlink)计划是由太空探索技术公司(SpaceX)提出的一个巨型低轨卫星互联网星座项目,计划在2019年至2024年间在太空搭建由约1.2万颗卫星组成的“星链”网络,其中1584颗将部署在地球上空550千米处的近地轨道,并从2020年开始工作。该卫星仍在工作。
2D轨道图
3D轨道图
轨道高度分析图
轨道倾角分析图
轨道综合分析图
查看轨道综合分析图